Shawbury, United Kingdom

4:59 PM BST on June 27, 2017 (GMT +0100)
Shawbury Air Base

Weather History for EGOS - May, 2013

Change the Weather History Date:

Tuesday, May 21, 2013

  Actual Average Record
Temperature  
Mean Temperature 50 °F -  
Max Temperature 55 °F 61 °F 66 °F (2014)
Min Temperature 42 °F 46 °F 39 °F (2014)
Degree Days  
Heating Degree Days 16    
Moisture  
Dew Point 47 °F    
Average Humidity 87    
Maximum Humidity 100    
Minimum Humidity 61    
Precipitation  
Precipitation 0.01 in - - ()
Sea Level Pressure  
Sea Level Pressure 30.06 in    
Wind  
Wind Speed 9 mph ()    
Max Wind Speed 16 mph    
Max Gust Speed -    
Visibility 6.6 miles    
Events Rain    
Averages and records for this station are not official NWS values.
T = Trace of Precipitation, MM = Missing Value Source: Averaged Metar Reports

Daily Weather History Graph

Daily Weather History Graph

Search for Another Location

Airport or City:

Trip Planner

Search our weather history database for the weather conditions in past years. The results will help you decide how hot, cold, wet, or windy it might be!

Date:

Astronomy

May. 21, 2013 Rise Set
Actual Time 5:04 AM BST 9:11 PM BST
Civil Twilight 4:19 AM BST 9:56 PM BST
Nautical Twilight 3:14 AM BST 11:02 PM BST
Astronomical Twilight 1:39 AM BST 12:34 AM BST
Moon 4:38 PM BST (5/21) 2:59 AM BST (5/21)
Length of Visible Light 17h 37m
Length of Day
16h 06m
Waxing Gibbous, 82% of the Moon is Illuminated
May 21
Waxing Gibbous
May 25
Full
May 31
Last Quarter
Jun 8
New
Jun 16
First Quarter

Hourly Weather History & Observations

Time (BST) Temp. Windchill Dew Point Humidity Pressure Visibility Wind Dir Wind Speed Gust Speed Precip Events Conditions
12:50 AM 52 °F - 50 °F 89% 30.02 in 9 mi NNW 9.2 mph - -   Overcast
12:50 AM 51.8 °F - 50.0 °F 94% 30.01 in 6.2 mi NNW 9.2 mph - N/A   Overcast
1:50 AM 51.8 °F - 48.2 °F 88% 30.01 in 6.2 mi NNW 9.2 mph - N/A   Overcast
2:50 AM 50.0 °F - 48.2 °F 94% 30.01 in 6.2 mi NW 11.5 mph - N/A   Overcast
3:50 AM 50 °F - 48 °F 90% 30.03 in 9 mi NNW 9.2 mph - -   Overcast
3:50 AM 50.0 °F - 48.2 °F 94% 30.01 in 6.2 mi NNW 9.2 mph - N/A   Overcast
4:50 AM 50.0 °F - 48.2 °F 94% 30.01 in 6.2 mi NNW 8.1 mph - N/A   Overcast
5:50 AM 50.0 °F - 48.2 °F 94% 30.01 in 6.2 mi NW 10.4 mph - N/A   Overcast
6:50 AM 49 °F - 47 °F 90% 30.05 in 4 mi NNW 9.2 mph - - Rain Light Rain
6:50 AM 50.0 °F - 46.4 °F 87% 30.04 in 6.2 mi NNW 9.2 mph - N/A Rain Light Rain
7:50 AM 50.0 °F - 46.4 °F 87% 30.04 in 6.2 mi NW 5.8 mph - N/A   Overcast
8:50 AM 50.0 °F - 48.2 °F 94% 30.06 in 2.5 mi NW 6.9 mph - N/A Rain Light Rain
9:28 AM 50.0 °F - 48.2 °F 94% 30.06 in 6.2 mi NW 9.2 mph - N/A Rain Light Rain
9:50 AM 50 °F - 49 °F 94% 30.07 in 4 mi NW 6.9 mph - - Rain Light Rain
9:50 AM 50.0 °F - 48.2 °F 94% 30.06 in 6.2 mi NW 6.9 mph - N/A Rain Light Rain
10:23 AM 50.0 °F - 48.2 °F 94% 30.06 in 6.2 mi NW 6.9 mph - N/A   Overcast
10:50 AM 51.8 °F - 48.2 °F 88% 30.06 in 6.2 mi NNW 9.2 mph - N/A Rain Light Rain
11:27 AM 51.8 °F - 50.0 °F 94% 30.06 in 2.8 mi NW 10.4 mph - N/A Rain Light Rain
11:43 AM 51.8 °F - 50.0 °F 94% 30.06 in 1.9 mi NW 10.4 mph - N/A Rain Light Rain
11:50 AM 51.8 °F - 50.0 °F 94% 30.06 in 2.2 mi NW 11.5 mph - N/A Rain Light Rain
12:14 PM 50.0 °F - 50.0 °F 100% 30.06 in 2.8 mi NW 9.2 mph - N/A   Light Drizzle
12:50 PM 51 °F - 50 °F 95% 30.09 in 4 mi NW 10.4 mph - - Rain Light Drizzle
12:50 PM 51.8 °F - 50.0 °F 94% 30.06 in 6.2 mi NW 10.4 mph - N/A   Light Drizzle
1:21 PM 51.8 °F - 50.0 °F 94% 0.00 in 6.2 mi NW 11.5 mph - N/A   Overcast
1:50 PM 53.6 °F - 50.0 °F 88% 0.00 in 6.2 mi NW 10.4 mph - N/A   Mostly Cloudy
2:50 PM 51.8 °F - 48.2 °F 88% 30.09 in 6.2 mi NW 10.4 mph - N/A   Mostly Cloudy
3:50 PM 54 °F - 48 °F 74% 30.10 in 16 mi NW 15.0 mph - -   Partly Cloudy
3:50 PM 53.6 °F - 48.2 °F 82% 30.09 in 6.2 mi NW 15.0 mph - N/A   Mostly Cloudy
4:40 PM 53.6 °F - 46.4 °F 77% 30.06 in 6.2 mi NW 16.1 mph - N/A   Scattered Clouds
4:50 PM 55.4 °F - 48.2 °F 77% 30.06 in 6.2 mi NW 16.1 mph - N/A   Scattered Clouds
5:50 PM 53.6 °F - 44.6 °F 72% 30.06 in 6.2 mi NNW 11.5 mph - N/A   Partly Cloudy
6:50 PM 54 °F - 44 °F 61% 30.09 in 19 mi NW 13.8 mph - -   Partly Cloudy
6:50 PM 53.6 °F - 44.6 °F 72% 30.06 in 6.2 mi NW 13.8 mph - N/A   Scattered Clouds
7:50 PM 53.6 °F - 44.6 °F 72% 30.09 in 6.2 mi NW 11.5 mph - N/A   Partly Cloudy
8:50 PM 50.0 °F - 42.8 °F 76% 30.09 in 6.2 mi NNW 9.2 mph - N/A   Scattered Clouds
9:50 PM 48 °F - 42 °F 73% 30.13 in 19 mi NW 6.9 mph - -   Scattered Clouds
9:50 PM 48.2 °F - 42.8 °F 82% 30.12 in 6.2 mi NW 6.9 mph - N/A   Partly Cloudy
10:50 PM 44.6 °F 42.2 °F 41.0 °F 87% 30.12 in - WNW 4.6 mph - N/A   Clear
11:50 PM 42.8 °F 40.1 °F 41.0 °F 93% 30.12 in 6.2 mi West 4.6 mph - N/A   Scattered Clouds